{"data":{"norad_id":57111,"intl_designator":"2023-090L","name":"STARLINK-6140","alt_names":[],"object_type":"PAYLOAD","status":"ACTIVE","operator":null,"country":"US","launch_date":"2023-06-23","launch_site_code":"AFETR","launch_vehicle":null,"mission":null,"orbit_class":"UNKNOWN","rcs_meters":null,"size_class":null,"mass_kg":null,"dimensions":null,"purposes":["comms"],"wikipedia_slug":null,"has_3d_model":false,"image_url":null,"decayed_at":null,"tle_current":{"epoch":"2026-05-25T04:34:35.961600Z","epoch_age_seconds":55667,"freshness":"FRESH","line1":"1 57111U 23090L   26145.19069400  .00000653  00000+0  33260-4 0  9997","line2":"2 57111  43.0019 209.3928 0001330 272.2822  87.7877 15.27578346162033","mean_motion":15.27578346,"eccentricity":0.000133,"inclination_deg":43.0019,"raan_deg":209.3928,"arg_perigee_deg":272.2822,"mean_anomaly_deg":87.7877,"bstar":3.326e-5,"rev_number":16203,"period_min":94.266850781871,"perigee_km":482.14151030567,"apogee_km":483.96658712462,"semimajor_km":6861.1910487151,"source":"CELESTRAK","updated_at":"2026-05-25T13:38:18.241262Z"}}}